Wind_Speed
25 24 23 22 22 21 19 18 17 16 15 14 14 13 12 11 9 8 6 5 4 3 2 1 1 0 1 1 2 3 3 4 4 4 4 5 5 5 6 6 7 7 8 9 11 12 13 14 15 16 16 17 18 18 18 18 19 19 19 19 19 20 20 20 20 20 20 19 19
25 24 23 22 21 20 19 18 16 15 14 13 12 11 10 9 8 7 6 5 4 3 2 2 1 1 1 1 2 2 3 3 4 4 4 4 5 5 6 6 7 8 9 10 11 12 13 14 15 16 17 18 18 19 19 19 19 19 20 20 20 21 21 21 20 20 20 20 19
25 24 23 22 21 20 19 18 16 15 14 12 11 10 9 8 7 7 6 5 4 3 2 2 2 2 1 2 2 2 3 3 4 4 4 4 5 6 6 7 8 9 9 10 11 12 13 14 15 16 17 18 19 19 19 19 20 20 21 21 21 21 21 21 21 21 20 19 19
24 22 21 20 19 19 18 17 16 15 13 12 11 10 9 8 7 7 6 5 4 3 2 2 2 2 2 2 2 3 3 4 4 4 5 5 6 6 7 8 9 9 10 11 12 12 14 15 16 17 17 18 19 19 20 20 20 21 21 22 22 22 22 22 21 21 20 19 19
22 21 20 19 18 17 16 16 15 14 13 12 11 10 9 8 7 6 6 5 4 3 2 2 2 2 3 3 3 3 3 4 4 5 5 6 7 8 8 9 10 10 11 11 12 13 14 15 16 17 18 18 19 19 20 20 21 21 22 22 22 22 22 22 22 21 20 19 19
21 20 19 18 17 17 16 15 14 13 12 11 11 10 9 8 7 6 6 5 3 2 1 1 2 2 3 3 3 3 4 4 5 6 6 7 8 9 9 10 10 11 11 12 13 14 15 16 17 17 18 19 19 20 20 21 22 22 23 23 23 23 23 23 22 22 20 20 19
21 20 19 18 17 16 16 15 14 13 12 11 10 9 9 8 7 6 5 4 3 2 1 1 2 2 3 3 4 4 4 5 6 6 7 8 9 10 10 11 11 12 12 13 14 14 15 16 17 18 19 19 20 20 21 22 22 23 24 24 24 24 24 23 23 22 21 20 20
21 20 19 18 17 16 16 15 14 13 12 11 10 9 8 7 6 5 4 3 2 1 1 1 2 3 3 4 4 4 5 6 6 7 8 9 10 10 11 12 12 13 13 14 14 15 16 17 17 18 19 20 21 21 22 22 23 24 24 25 25 25 24 24 23 22 21 20 21
21 19 18 18 17 16 15 14 13 12 12 11 10 9 8 6 5 4 3 2 2 1 0 1 2 3 3 4 4 5 6 7 7 8 9 10 10 11 12 13 13 14 14 15 15 16 17 17 18 19 20 20 21 22 23 23 24 25 25 25 25 25 25 24 23 22 21 21 21
21 19 18 17 16 15 14 13 13 12 12 11 10 9 8 6 5 4 3 2 1 0 1 2 2 3 3 4 5 5 6 7 8 9 10 10 11 12 13 14 14 15 15 15 16 17 18 18 19 20 20 21 22 23 23 24 25 25 25 26 26 26 26 25 24 23 22 21 21
20 19 18 17 16 15 14 13 13 12 11 11 10 9 8 6 5 3 2 1 0 0 1 2 2 3 4 4 5 6 7 8 9 10 10 11 12 13 14 14 15 16 16 16 17 18 18 19 20 21 22 22 23 24 24 25 25 26 26 26 26 26 26 25 24 23 22 21 21
20 19 18 17 16 15 14 13 12 11 11 10 9 8 7 6 4 3 2 1 1 1 1 2 3 3 4 5 5 6 7 8 9 10 11 12 13 13 14 15 16 16 17 17 18 19 19 20 21 22 23 23 24 24 25 25 26 26 26 27 27 26 26 26 24 23 22 21 20
20 19 18 16 15 14 13 12 11 10 9 9 8 7 6 5 3 2 2 1 1 1 1 2 3 4 4 5 6 7 8 9 10 11 12 13 13 14 15 16 17 17 18 18 19 20 20 21 22 23 24 25 25 25 25 26 26 26 27 27 27 26 26 25 24 23 21 20 19
20 19 17 16 15 14 13 12 11 9 8 7 6 5 4 3 3 2 1 1 1 1 2 2 3 4 5 6 6 7 8 9 10 11 12 13 14 15 16 17 17 18 19 19 20 20 21 22 23 24 25 25 26 26 26 26 26 26 26 26 27 26 26 25 24 22 20 19 19
20 18 17 16 15 14 13 12 10 9 8 7 5 4 3 3 2 1 1 1 1 2 2 3 3 4 5 6 7 8 9 10 11 12 13 14 15 16 17 18 18 19 20 20 21 21 22 23 24 24 25 25 26 26 26 26 26 26 26 26 26 26 25 24 22 20 19 18 18
19 18 17 15 14 13 12 11 10 9 8 6 5 4 3 3 2 1 1 1 2 2 3 3 4 5 5 6 7 8 9 11 12 13 14 15 16 17 18 19 20 20 21 22 22 22 23 23 24 24 25 25 26 26 26 26 25 25 25 25 25 24 24 22 20 19 18 18 18
19 17 16 15 14 13 12 10 9 8 7 6 5 4 3 3 2 1 1 1 2 3 4 4 5 5 6 7 8 9 10 11 12 14 15 16 18 19 19 20 21 21 22 22 23 23 24 24 24 24 25 25 25 25 25 25 25 25 25 24 24 23 22 20 19 18 18 18 18
18 17 15 14 13 12 10 9 8 7 7 6 5 4 3 2 1 0 1 2 3 4 5 5 5 6 7 8 9 10 11 12 14 15 16 17 18 19 20 21 21 21 22 22 23 24 24 25 25 25 25 25 25 25 25 25 24 24 24 24 23 22 21 19 18 18 18 18 19
17 16 15 13 12 11 9 8 8 7 6 5 4 3 2 1 0 1 2 3 4 5 5 6 6 7 8 9 10 11 12 13 15 16 17 18 19 20 20 21 21 21 22 23 23 24 24 25 25 25 25 24 24 24 24 24 24 24 24 23 22 21 20 19 18 18 18 19 19
16 15 14 13 11 10 9 8 7 7 6 5 3 2 1 1 1 2 3 4 4 5 5 6 7 8 9 10 11 12 13 14 15 17 18 19 19 20 20 21 21 22 22 23 23 24 25 25 25 25 24 24 24 24 24 24 24 24 24 23 22 21 20 19 19 19 19 19 20
15 14 13 12 11 10 9 8 7 6 5 4 2 1 1 1 2 3 3 4 4 5 6 7 7 9 10 11 12 13 14 15 16 17 18 19 19 19 20 21 21 22 22 23 24 25 25 25 25 24 24 24 24 24 24 24 24 24 24 23 23 22 21 20 20 20 20 20 21
15 14 13 12 11 10 9 8 7 5 4 3 2 1 1 1 2 3 4 4 5 5 6 7 8 9 10 12 13 14 15 16 17 17 18 18 19 19 20 21 21 22 23 24 25 25 25 25 24 24 24 24 24 24 24 24 24 24 24 24 23 23 22 21 21 21 21 21 21
14 14 13 12 11 10 9 7 6 5 4 2 2 1 1 2 3 3 4 4 5 6 6 7 8 10 11 12 13 15 16 17 17 17 17 18 19 19 20 21 22 23 24 25 25 25 24 24 24 24 23 23 23 24 24 24 24 25 25 25 24 24 23 23 22 22 22 22 21
14 14 13 12 10 9 8 6 5 4 3 2 1 1 2 3 3 4 4 5 5 6 7 8 9 10 11 12 13 15 16 17 17 17 18 18 19 20 21 22 23 24 24 25 25 23 23 23 23 23 23 23 23 24 24 24 24 25 25 25 25 25 24 24 23 23 22 22 21
14 13 12 11 10 8 7 5 4 3 2 1 1 1 2 3 4 4 5 5 6 6 7 9 10 11 12 13 14 14 15 16 17 18 19 19 20 20 21 22 23 24 25 25 23 22 21 22 22 23 23 24 24 24 24 24 24 25 25 25 25 25 25 25 24 23 22 21 21
14 13 11 10 9 7 6 5 3 2 1 0 1 2 3 4 4 4 5 5 6 7 8 9 10 11 12 13 14 14 15 16 16 18 19 20 21 22 22 23 24 25 25 24 23 22 22 22 22 22 23 24 24 25 25 25 25 25 25 25 25 25 25 25 24 23 22 21 20
13 12 11 9 8 6 5 4 3 2 1 1 2 3 3 4 4 5 5 6 7 8 9 10 11 12 13 14 14 15 15 16 17 18 19 20 22 23 23 24 24 25 25 24 22 22 22 22 22 23 23 24 24 25 25 25 25 25 25 25 25 25 25 24 23 22 21 20 20
13 11 10 8 7 6 5 4 3 2 2 2 2 3 4 4 4 5 5 6 7 9 10 11 11 12 13 14 14 15 16 17 18 19 20 21 22 23 24 24 25 25 25 24 22 22 22 23 23 23 23 24 24 24 25 25 25 25 25 25 25 25 24 23 22 21 20 20 20
12 10 9 8 7 6 5 4 3 2 2 2 3 3 4 4 4 5 6 7 8 9 11 11 12 13 13 14 15 16 16 17 18 20 21 22 23 23 24 24 24 25 24 23 22 22 22 23 23 23 24 24 24 24 24 24 24 25 26 26 25 24 23 22 20 19 18 18 19
11 9 8 8 7 6 5 4 3 2 2 2 3 3 3 4 4 5 6 8 9 10 11 12 12 13 14 15 16 16 18 18 19 20 21 22 23 24 24 24 24 24 24 23 22 22 23 23 23 24 24 24 24 24 24 24 25 25 26 25 24 23 21 19 18 17 18 19 20
10 9 8 7 6 5 4 4 3 2 2 2 3 3 3 4 4 6 7 8 9 10 11 12 13 13 14 15 16 17 19 19 20 21 22 23 23 24 24 24 24 24 23 22 22 22 23 23 24 24 24 24 24 23 24 24 25 25 25 24 22 20 18 17 16 17 18 20 22
10 8 7 7 6 5 4 3 2 2 2 2 2 2 3 4 5 6 7 8 9 10 11 12 13 14 15 16 17 18 19 20 21 21 22 22 23 23 23 23 24 23 23 21 22 22 23 23 24 24 24 24 23 23 24 25 24 24 23 21 19 17 16 16 16 18 19 21 23
9 8 7 6 5 4 3 3 2 1 1 1 2 2 3 4 5 6 7 8 10 11 12 13 14 15 16 17 19 19 20 21 21 22 22 22 22 23 23 23 23 23 22 21 22 22 23 23 24 24 24 24 24 24 24 24 23 22 20 18 17 16 16 17 18 19 21 23 25
8 7 6 5 4 4 3 2 1 1 0 1 1 2 4 5 6 7 8 9 10 11 12 13 14 15 16 18 19 20 21 21 21 22 22 22 22 22 23 23 23 23 22 21 21 22 22 23 23 24 24 24 24 24 24 23 22 20 19 18 17 17 18 19 20 21 23 24 26
6 6 5 4 4 3 2 1 1 1 1 1 2 3 4 6 7 8 9 10 11 12 13 14 14 16 17 17 18 20 21 21 22 22 21 21 22 22 22 23 23 23 22 21 21 21 22 23 23 24 24 24 23 23 23 22 21 20 19 19 19 19 19 20 21 22 23 24 26
5 5 4 4 3 3 2 2 1 1 1 2 3 4 5 6 7 8 9 10 12 13 14 15 15 16 17 18 19 20 20 21 21 21 21 21 21 22 22 22 23 23 22 22 21 21 22 22 23 23 24 23 23 22 22 21 20 20 20 20 20 20 21 22 22 23 23 24 26
4 4 3 3 3 3 2 2 2 2 2 3 4 5 6 7 8 9 10 11 13 14 15 16 16 17 18 19 19 20 20 20 21 21 21 21 21 21 22 22 22 22 22 22 21 21 21 22 22 23 23 23 23 22 22 21 20 20 20 20 20 21 21 22 22 23 24 25 26
4 3 3 3 3 3 3 3 2 2 3 4 5 6 7 8 9 10 10 12 13 15 16 16 17 17 18 19 19 20 20 20 20 20 21 21 21 21 21 22 22 22 22 22 20 20 21 21 22 23 23 23 23 22 22 21 20 20 20 20 20 21 21 22 22 23 24 26 26
4 3 3 4 4 4 3 3 2 3 4 4 5 6 7 8 9 10 11 12 13 14 15 16 17 17 18 18 19 19 20 19 19 20 20 20 20 20 21 21 21 21 21 21 20 20 20 21 22 22 23 22 22 22 21 20 20 19 19 20 21 22 22 22 23 24 25 26 26
4 4 4 4 4 4 3 3 3 3 4 5 6 7 8 9 10 11 11 12 13 14 15 16 17 17 17 18 19 19 20 20 20 20 20 20 20 20 20 20 21 21 21 21 20 19 20 21 22 22 22 22 22 21 20 20 20 19 20 20 21 22 23 23 24 24 24 25 24
4 4 4 4 4 4 3 3 3 4 4 5 6 7 9 10 11 11 12 13 13 14 15 16 17 17 17 18 18 19 20 20 20 20 20 20 20 20 20 20 20 20 20 20 20 19 20 21 21 22 22 22 21 20 19 19 19 20 20 21 22 23 24 25 25 23 22 21 21
Wind_Direction
160 161 162 162 162 161 160 159 161 164 167 168 167 168 170 171 169 168 168 169 160 146 128 104 70 348 306 307 311 315 320 323 323 321 319 317 317 319 322 327 331 335 338 340 342 343 343 343 343 342 342 343 343 343 344 344 343 342 340 339 338 337 335 333 332 331 330 329 328
161 163 164 164 164 163 162 160 162 164 167 170 170 171 172 174 171 168 164 159 151 137 119 99 75 48 352 330 330 330 330 332 333 332 330 329 329 331 333 335 337 339 339 340 340 340 339 339 338 338 339 340 340 340 341 342 342 340 338 337 337 335 334 332 331 330 328 327 326
162 164 165 166 166 165 164 163 164 165 167 169 171 171 172 172 171 166 161 155 147 135 116 94 78 58 33 4 350 344 342 342 344 344 344 342 341 341 342 341 341 341 340 339 337 336 336 335 335 335 336 337 338 338 339 340 340 338 337 336 335 334 332 330 329 328 327 325 324
162 163 164 165 167 168 167 166 167 167 168 169 170 170 170 170 168 165 161 157 150 139 118 90 69 51 33 16 0 352 350 350 349 350 349 349 348 346 345 344 343 341 339 337 335 333 333 332 332 333 334 335 336 337 338 338 338 337 335 334 333 332 330 329 328 327 325 323 322
161 163 165 166 167 168 168 168 168 168 169 170 169 167 167 168 168 167 165 161 156 147 122 83 55 38 26 14 5 357 353 351 350 350 350 350 349 348 346 344 343 340 338 336 333 331 331 330 331 332 333 334 335 336 336 337 336 334 333 332 332 330 329 328 327 326 324 322 321
159 161 163 165 165 166 166 167 168 168 169 170 168 164 163 165 167 168 167 166 163 153 125 74 41 22 12 5 0 357 353 351 350 349 348 348 348 347 345 343 341 339 337 334 332 330 330 329 330 331 332 333 333 334 335 335 334 332 331 331 330 330 328 327 326 325 322 320 320
159 159 160 162 163 163 163 164 166 167 167 168 166 163 161 163 166 169 172 174 173 163 134 60 19 6 359 355 354 353 352 350 349 348 348 347 346 345 343 341 339 337 335 333 331 330 329 329 329 330 331 332 332 333 333 333 332 331 330 329 329 329 328 326 325 323 321 319 319
158 159 159 161 162 162 162 163 163 164 164 164 164 163 163 165 169 173 178 180 176 169 141 22 0 353 349 348 348 349 349 349 348 348 346 345 344 342 340 338 337 335 334 333 331 330 329 328 328 329 330 330 330 331 332 332 330 329 328 328 327 327 327 326 324 322 320 318 318
155 157 159 160 161 161 161 161 161 161 162 162 163 164 165 168 172 175 177 175 172 164 46 355 348 344 343 345 346 347 347 347 346 346 345 343 341 339 337 336 334 333 333 333 331 329 329 328 328 328 329 329 329 329 330 330 329 328 327 327 326 326 325 325 323 321 318 317 317
154 156 157 158 159 160 159 159 160 161 162 162 163 165 166 168 171 171 170 169 169 147 352 343 339 339 341 344 346 346 346 345 344 343 342 340 338 336 334 333 332 331 331 332 331 329 328 328 327 328 328 328 328 328 328 328 328 327 326 325 325 324 324 323 322 320 317 316 315
155 156 157 158 159 160 160 159 160 162 164 164 164 165 166 167 166 165 162 160 179 285 320 333 336 340 343 345 346 346 345 343 342 340 338 337 335 333 331 330 329 329 329 330 330 329 328 328 327 327 327 328 328 327 327 327 327 326 325 325 324 323 322 322 320 318 316 315 315
155 156 158 158 160 161 161 161 161 163 164 164 164 163 163 164 163 162 164 177 225 281 317 334 341 344 345 346 345 344 343 341 339 337 336 334 333 331 329 328 328 328 328 329 330 329 328 328 327 327 327 327 327 327 327 326 326 325 324 324 323 322 321 320 319 317 316 314 315
156 156 157 158 160 161 162 161 162 163 163 163 162 162 161 162 162 165 178 206 251 299 330 341 345 347 345 345 344 342 341 339 337 335 334 332 331 329 328 327 327 328 328 329 329 329 328 328 328 327 327 327 326 326 326 326 325 324 323 323 322 321 319 319 318 317 315 315 315
156 156 157 158 160 161 162 161 161 162 163 163 162 161 162 163 167 177 199 235 284 325 342 347 347 346 345 343 342 340 339 337 335 334 332 331 329 328 327 327 328 328 329 329 329 329 328 328 328 328 327 326 326 325 325 325 324 323 322 321 320 319 318 318 318 317 315 315 315
156 157 158 159 161 162 163 162 162 163 164 165 164 165 168 172 180 196 223 267 316 339 346 349 348 346 344 342 340 338 336 335 334 332 331 329 329 328 327 327 328 329 329 329 329 329 329 329 328 328 327 326 325 325 324 324 323 322 321 320 319 318 318 318 317 316 315 314 316
156 157 159 161 163 164 164 162 162 163 164 165 166 169 175 182 193 212 248 302 333 343 347 347 346 345 344 342 339 337 335 334 332 331 329 328 328 327 327 327 328 329 330 330 329 329 329 329 329 328 327 326 325 325 324 323 322 321 320 319 319 318 318 317 316 315 314 314 316
157 158 161 163 164 164 163 162 161 161 163 166 168 172 177 184 195 218 297 333 342 346 347 346 344 344 342 341 338 336 334 333 332 330 328 327 327 327 327 327 328 329 330 330 330 330 330 330 330 329 328 327 325 324 323 322 321 320 320 319 319 319 318 317 315 314 313 314 316
157 159 162 163 164 164 163 161 161 162 164 167 169 171 175 180 192 298 342 346 346 345 344 345 344 342 341 339 338 336 334 332 330 328 327 326 326 326 326 328 329 330 331 331 331 331 331 331 330 330 328 327 325 324 322 321 320 320 320 320 320 319 318 317 315 314 314 314 316
158 160 162 163 164 164 164 164 164 165 166 166 167 166 165 162 11 352 349 346 345 344 343 343 343 342 340 338 336 335 333 330 328 326 325 325 325 326 327 329 330 331 332 332 332 332 332 332 331 330 329 327 325 323 322 321 320 320 320 320 320 320 319 317 315 314 314 314 316
159 160 161 163 164 165 165 165 165 165 165 162 159 153 136 53 3 351 345 344 343 343 342 342 341 340 338 337 335 333 331 328 325 324 323 324 325 327 329 331 332 332 333 333 333 333 333 332 332 330 329 327 324 323 322 321 321 320 321 321 320 320 318 317 315 314 314 314 315
158 159 160 161 162 163 163 163 162 161 159 154 145 130 89 19 355 347 343 343 343 342 342 341 340 339 337 335 333 331 328 326 324 323 324 325 327 329 331 333 333 334 334 334 335 334 334 333 332 330 328 325 323 322 321 321 321 321 321 321 320 319 318 316 315 314 314 314 315
155 156 157 157 158 158 158 157 157 155 151 142 128 104 52 7 350 346 343 342 343 342 342 341 340 338 336 334 331 328 326 324 323 324 325 327 329 332 334 335 335 335 336 336 336 336 335 333 331 329 326 324 322 321 321 321 321 321 320 320 320 319 318 316 315 314 313 313 314
152 152 153 154 154 154 154 153 152 149 142 131 111 79 24 357 349 345 343 342 342 342 342 341 339 337 334 331 328 326 324 324 324 326 328 330 332 334 336 337 337 337 337 337 337 336 334 331 328 326 324 322 321 321 321 321 320 320 320 320 319 318 317 316 315 314 313 313 314
150 151 151 152 152 152 151 150 148 143 133 119 90 35 0 348 344 342 342 343 343 343 342 341 339 336 332 329 327 325 325 326 328 330 332 334 335 337 338 338 339 339 338 338 337 335 331 328 326 324 323 322 322 321 321 320 320 320 320 319 319 318 317 315 314 314 313 313 314
150 150 151 151 151 151 150 148 144 136 125 105 37 354 341 339 339 341 343 344 344 343 342 340 338 334 332 329 328 328 329 331 333 334 336 337 338 339 339 340 340 340 339 338 336 332 328 326 325 324 323 322 322 321 321 321 320 320 320 319 318 317 316 315 315 314 314 315 315
150 150 151 151 152 151 149 145 141 136 131 88 329 327 329 333 337 341 344 346 346 344 343 340 337 335 333 331 330 331 333 335 337 338 339 339 340 340 341 341 340 340 339 338 334 330 327 326 325 325 324 323 323 322 321 321 320 320 320 319 318 317 316 315 315 315 316 316 317
151 151 151 152 152 151 149 149 151 160 186 264 298 311 322 332 339 343 345 346 345 344 342 340 338 336 334 333 333 335 337 339 341 341 341 341 341 341 341 341 341 340 339 337 332 329 328 327 327 326 326 325 324 323 322 321 321 320 320 319 319 318 317 316 316 317 318 318 318
151 151 152 154 154 154 156 161 170 190 224 265 292 310 323 334 340 344 346 345 344 343 342 340 339 337 336 336 337 339 340 342 343 343 343 342 342 342 342 341 341 341 340 337 333 330 329 328 328 328 327 326 325 324 322 322 321 321 320 320 319 318 318 317 318 319 320 320 320
152 153 154 156 159 161 165 173 186 209 242 274 297 314 327 337 343 346 346 345 344 343 341 340 338 337 337 339 340 341 342 343 344 344 343 343 342 342 342 341 341 341 340 338 334 331 330 330 330 329 329 328 327 325 323 322 322 321 321 320 320 320 320 320 321 322 322 322 321
153 155 158 161 164 168 173 182 198 222 254 283 304 320 331 341 346 348 346 345 343 342 341 338 337 337 339 340 341 342 343 344 345 345 344 343 343 342 342 341 341 341 341 338 333 332 331 331 331 331 330 330 328 326 324 323 323 322 321 321 321 322 322 322 323 324 324 324 323
155 158 161 165 168 171 178 190 208 236 267 292 311 325 337 348 352 351 347 344 342 340 339 338 337 338 340 341 342 343 343 344 344 345 344 343 342 342 341 341 341 341 340 337 334 333 333 333 333 332 332 331 329 327 326 325 324 323 323 323 323 323 323 323 324 325 326 326 325
157 160 164 167 170 174 183 196 217 246 279 302 320 336 349 355 355 352 348 343 340 339 338 338 339 340 341 342 342 342 343 343 344 344 344 343 342 341 340 340 340 341 340 336 335 334 334 335 334 334 333 332 330 328 327 326 326 325 324 324 324 324 325 326 327 327 327 327 325
158 161 165 168 171 177 187 202 224 252 287 315 337 353 357 358 357 353 349 344 341 339 338 339 339 339 340 340 341 341 341 342 343 343 342 342 341 340 339 339 340 340 339 336 336 336 336 336 336 335 334 333 331 330 329 328 327 326 325 325 325 325 326 327 328 328 328 326 323
159 163 166 169 174 180 189 204 220 245 298 353 6 6 2 359 356 353 349 344 340 338 337 338 338 338 338 339 339 339 340 340 341 341 341 341 340 340 339 339 340 341 340 337 337 337 337 337 336 336 335 334 332 331 330 329 328 326 325 324 325 326 327 328 328 328 326 324 320
163 166 169 172 178 184 189 191 179 152 89 38 22 12 5 1 356 351 347 342 338 336 336 337 337 337 337 338 338 339 339 339 340 340 340 340 339 339 338 338 339 341 341 339 338 337 338 337 337 336 335 334 333 333 331 329 327 325 324 324 325 327 327 327 326 325 323 320 316
167 170 173 176 180 181 175 161 143 117 73 37 19 10 4 359 355 350 344 339 335 334 335 336 336 337 337 338 338 338 338 338 338 338 339 339 339 338 337 337 339 340 342 341 339 338 338 337 337 336 336 335 334 333 331 329 327 325 324 325 326 327 327 326 324 322 319 316 314
168 171 173 175 173 167 154 140 122 91 52 27 13 6 359 354 351 347 343 338 335 334 334 335 335 337 337 337 337 336 336 337 337 337 337 338 338 337 336 337 338 340 341 341 339 338 337 337 337 337 336 335 334 333 331 329 327 325 325 325 326 326 326 324 321 318 315 314 312
167 168 169 166 159 150 139 124 98 63 35 19 9 2 355 349 345 343 341 337 334 333 333 333 334 335 336 335 334 334 334 335 336 336 336 337 337 337 336 336 337 338 340 340 338 337 336 336 337 337 337 335 334 332 331 329 327 326 325 326 325 324 323 321 318 315 313 311 311
163 163 161 155 147 138 126 106 74 44 24 12 3 357 351 345 341 339 337 335 333 332 331 331 332 333 334 334 333 332 332 334 335 335 336 336 337 337 336 335 335 337 338 339 337 336 336 336 336 336 336 335 334 333 331 329 327 326 325 325 323 321 319 317 315 312 310 309 309
159 157 152 146 137 127 111 88 58 34 18 6 358 351 346 340 336 335 334 333 332 330 330 329 330 331 332 333 332 331 331 332 334 336 336 336 337 337 336 335 335 336 337 337 336 335 335 335 335 336 336 335 334 333 331 329 327 325 325 323 321 319 316 314 312 310 308 309 311
154 150 145 138 127 113 93 70 47 29 14 2 352 346 340 335 332 331 331 331 331 330 329 329 329 330 331 332 331 331 330 331 334 336 337 337 337 337 337 336 335 335 336 336 335 334 334 334 334 335 335 334 333 332 331 329 326 325 323 321 318 315 313 312 311 310 311 313 316
Height
776 778 779 780 781 782 783 784 785 786 786 787 787 788 789 789 789 790 790 791 791 791 791 791 791 792 792 792 792 791 791 791 791 790 790 790 789 789 789 788 788 787 786 785 785 784 783 783 782 781 780 780 779 778 778 777 776 775 774 774 773 773 772 771 770 769 769 768 768
776 778 779 780 781 782 783 784 785 786 787 787 788 788 788 789 789 790 790 790 791 791 791 791 791 791 791 791 791 791 791 791 790 790 789 789 789 789 788 788 787 786 785 785 784 784 783 782 781 781 780 779 778 778 777 776 775 775 774 773 773 772 771 770 769 769 768 767 767
776 778 779 780 781 782 783 784 785 786 786 787 788 788 788 789 789 789 790 790 790 791 791 791 791 791 791 791 791 791 790 790 790 789 789 789 788 788 787 787 786 786 785 784 784 783 782 782 781 780 779 779 778 777 776 775 775 774 773 772 772 771 770 769 769 768 767 767 766
777 778 779 780 781 782 783 784 785 785 786 787 787 788 788 789 789 789 790 790 790 790 790 790 791 791 791 790 790 790 790 790 789 789 789 788 788 787 787 786 786 785 784 784 783 783 782 781 780 780 779 778 777 776 776 775 774 774 773 772 771 770 769 769 768 767 767 766 765
777 778 779 780 781 782 783 784 784 785 786 786 787 788 788 789 789 789 789 790 790 790 790 790 790 790 790 790 790 790 789 789 789 789 788 788 787 787 786 786 785 784 784 784 783 782 781 781 780 779 778 778 777 776 775 774 774 773 772 771 770 769 769 768 767 766 766 765 764
777 778 779 781 782 782 783 784 785 785 786 786 787 787 788 788 789 789 789 789 790 790 790 790 790 790 790 789 789 789 789 789 789 788 788 787 787 786 786 785 785 784 784 783 782 782 781 780 779 779 778 777 776 775 774 774 773 772 771 770 769 769 768 767 766 765 764 764 763
777 778 779 780 781 782 783 784 785 785 786 786 787 787 788 788 789 789 789 789 789 789 789 789 789 789 789 789 789 789 789 788 788 788 787 787 786 786 785 785 784 784 783 782 782 781 780 779 779 778 777 776 775 774 774 773 772 771 770 769 768 768 767 766 765 764 764 763 762
777 778 779 780 782 783 783 784 785 785 786 786 787 787 788 788 789 789 789 789 789 789 789 789 789 789 789 789 789 788 788 788 787 787 786 786 786 785 785 784 784 783 782 782 781 780 779 779 778 777 776 775 774 774 773 772 771 770 769 768 767 767 766 765 764 763 763 762 761
777 778 779 781 782 783 783 784 785 785 786 786 787 787 788 788 789 789 789 789 789 789 789 789 789 789 788 788 788 788 787 787 787 786 786 785 785 784 784 784 783 782 782 781 780 779 779 778 777 776 775 774 774 773 772 771 770 769 768 767 766 765 765 764 763 762 761 760 759
777 778 779 781 782 783 783 784 785 785 786 786 787 787 788 788 788 789 789 789 789 789 788 788 788 788 788 788 788 787 787 786 786 786 785 785 784 784 784 783 782 781 781 780 779 779 778 777 776 775 774 774 773 772 771 770 769 768 767 766 765 764 763 763 762 761 760 759 759
777 778 779 780 782 783 783 784 784 785 785 786 787 787 788 788 788 788 789 789 788 788 788 788 788 788 787 787 787 787 786 786 786 785 785 784 784 784 783 782 782 781 780 779 779 778 777 776 775 774 773 773 772 771 770 769 768 767 766 765 764 763 762 761 761 760 759 758 757
777 779 779 781 782 782 783 784 784 785 785 786 786 787 787 788 788 788 788 788 788 788 788 787 787 787 787 787 786 786 786 785 785 785 784 784 784 783 782 782 781 780 779 779 778 777 776 775 774 773 772 771 770 770 769 768 767 766 764 764 763 762 761 760 759 759 758 757 756
777 779 779 781 782 782 783 784 784 784 785 786 786 787 787 787 788 788 788 788 788 787 787 787 787 787 786 786 786 786 785 785 785 784 784 784 783 782 782 781 780 779 779 778 777 776 775 774 773 772 771 770 769 769 768 767 766 764 763 762 761 760 759 759 758 757 756 755 754
778 779 779 781 781 782 783 784 784 784 785 785 786 787 787 787 787 787 787 787 787 787 787 787 786 786 786 786 785 785 785 784 784 784 784 783 782 782 781 780 779 779 778 777 776 775 774 773 772 771 770 769 768 767 766 766 764 764 762 761 760 759 758 757 756 756 755 754 753
778 779 780 780 781 782 783 783 784 784 785 785 786 786 787 787 787 787 787 787 787 787 786 786 786 786 785 785 785 785 784 784 784 783 783 782 782 781 780 779 779 778 777 776 775 774 773 772 771 770 769 768 767 766 765 764 764 763 761 760 759 758 757 756 755 754 754 753 752
778 779 780 780 781 782 783 783 784 784 785 785 786 786 786 786 787 787 787 787 786 786 786 786 785 785 785 785 784 784 784 784 783 783 782 782 781 780 779 779 778 777 776 775 774 773 772 771 770 769 768 767 766 765 764 763 762 761 760 759 758 757 756 755 754 753 752 752 751
778 779 780 780 781 782 783 783 784 784 785 785 786 786 786 786 786 786 786 786 786 786 785 785 785 785 784 784 784 784 784 783 783 782 782 781 780 779 779 778 777 776 775 774 773 772 771 770 769 768 767 766 765 764 763 762 761 760 759 758 757 756 755 754 753 752 751 750 749
778 779 780 780 781 782 783 783 784 784 785 785 785 786 786 786 786 786 786 786 785 785 785 785 784 784 784 784 784 783 783 783 782 782 781 780 780 779 778 777 776 775 774 773 772 770 769 769 768 767 766 765 764 763 762 761 759 759 758 756 755 754 754 753 752 751 750 749 748
778 779 780 780 781 782 782 783 784 784 784 785 785 785 785 786 786 785 785 785 785 785 784 784 784 784 784 784 783 783 783 782 782 781 780 780 779 778 777 776 775 774 773 772 771 769 769 767 766 765 764 763 762 761 760 759 758 757 756 755 754 753 752 751 751 750 749 748 747
778 779 780 780 781 782 782 783 783 784 784 784 785 785 785 785 785 785 785 785 784 784 784 784 784 784 783 783 783 782 782 781 781 780 780 779 778 777 776 775 774 773 772 771 769 768 767 766 765 764 763 762 761 760 759 758 757 756 755 754 753 752 751 750 749 749 748 747 746
779 779 780 780 781 782 782 783 783 784 784 784 784 784 785 785 785 785 784 784 784 784 784 784 783 783 783 782 782 782 781 781 780 780 779 778 777 776 775 774 773 772 770 769 768 767 766 765 764 763 762 761 760 759 758 756 755 754 753 752 752 751 750 749 748 747 746 745 744
779 779 780 780 781 782 782 783 783 784 784 784 784 784 784 784 784 784 784 784 784 784 784 783 783 783 782 782 781 781 781 780 780 779 778 777 776 775 774 773 772 770 769 768 767 766 764 764 763 762 761 760 759 758 757 755 754 753 752 751 750 749 749 748 747 746 745 744 743
779 779 780 780 781 782 782 783 783 783 784 784 784 784 784 784 784 784 784 784 784 783 783 783 783 782 782 781 781 780 780 779 779 778 777 776 775 774 773 772 771 769 768 767 766 765 764 763 762 761 760 759 758 756 755 754 753 752 750 749 749 748 747 746 745 744 744 743 742
779 779 780 780 781 781 782 782 783 783 783 784 784 784 784 784 784 784 784 783 783 783 783 782 782 782 781 781 781 780 779 779 778 777 776 775 774 773 772 771 769 769 767 766 765 764 763 762 761 760 759 758 756 755 754 753 752 750 749 748 747 746 745 744 744 743 742 741 740
779 779 780 780 781 781 782 782 783 783 783 783 784 784 784 784 784 783 783 783 783 783 782 782 781 781 781 780 780 779 779 778 777 776 775 774 773 772 771 769 769 767 766 765 764 764 763 762 761 759 758 756 755 754 753 751 750 749 748 747 746 744 744 743 742 741 741 740 739
779 779 780 780 781 781 782 782 782 783 783 783 783 783 783 783 783 783 783 783 782 782 782 781 781 780 780 780 779 779 778 778 776 775 774 773 772 771 770 769 768 766 765 764 764 763 762 761 760 759 757 755 754 753 751 750 749 748 747 746 745 744 742 741 740 739 739 739 738
779 779 780 780 781 781 782 782 782 782 783 783 783 783 783 783 783 783 782 782 782 782 781 781 780 780 780 779 779 778 777 777 776 774 774 772 771 770 769 768 767 765 764 764 763 762 761 760 759 758 756 755 753 751 750 749 747 747 746 744 744 742 741 740 739 738 738 737 736
779 779 779 780 781 781 781 782 782 782 783 783 783 783 783 783 782 782 782 782 781 781 781 780 780 779 779 779 778 777 777 776 775 774 773 771 770 769 768 767 766 765 764 763 762 761 760 759 758 756 755 754 752 750 749 748 746 745 744 743 742 741 740 739 738 737 736 736 735
778 779 779 780 780 781 781 782 782 782 782 783 783 783 782 782 782 782 781 781 781 780 780 780 779 779 779 778 777 777 776 775 774 773 772 770 769 768 767 766 765 764 763 762 761 760 759 758 756 755 754 753 751 749 748 747 745 744 743 742 741 740 739 738 737 736 736 735 734
778 779 779 780 780 781 781 781 782 782 782 782 782 782 782 782 782 781 781 781 780 780 780 779 779 779 778 778 777 776 775 774 773 772 771 769 768 767 766 765 764 763 762 761 760 759 758 757 755 754 753 751 750 749 747 746 745 743 742 741 740 739 738 737 737 736 735 734 733
778 779 779 780 780 781 781 781 781 782 782 782 782 782 782 781 781 781 781 780 780 780 779 779 779 778 778 777 776 775 774 773 772 771 770 769 767 766 765 764 764 762 761 760 759 758 757 756 754 753 752 750 749 748 746 745 744 743 741 740 739 738 738 737 736 735 734 733 732
778 779 779 780 780 780 781 781 781 781 782 782 782 781 781 781 781 781 780 780 780 779 779 779 778 777 776 776 775 774 773 772 771 770 769 768 767 766 765 764 763 762 761 760 759 757 756 754 753 752 750 749 748 747 745 744 743 742 740 739 739 738 737 736 735 734 734 732 731
778 779 779 779 780 780 781 781 781 781 781 781 781 781 781 781 780 780 780 780 779 779 779 778 777 777 776 775 774 773 772 771 770 769 768 767 766 765 764 763 762 761 760 759 758 756 755 754 752 751 749 748 747 746 744 743 742 741 740 739 738 737 736 735 734 734 733 731 730
778 779 779 779 780 780 780 781 781 781 781 781 781 781 781 780 780 780 779 779 779 779 778 778 777 776 775 774 773 772 771 770 769 769 768 767 766 764 764 762 761 760 759 758 757 756 754 753 751 750 749 748 746 745 744 742 741 740 739 738 737 737 736 735 734 733 732 731 729
779 779 779 779 780 780 780 780 781 781 781 781 781 780 780 780 780 779 779 779 779 778 778 777 776 775 775 774 773 772 770 769 769 768 767 766 765 764 763 762 760 759 759 757 756 755 754 752 751 749 748 747 745 744 743 742 740 739 739 738 736 735 735 734 733 732 731 730 728
779 779 779 779 780 780 780 780 780 780 780 780 780 780 780 779 779 779 779 779 778 777 777 776 775 775 774 773 772 771 770 769 768 767 766 765 764 763 762 761 760 759 758 757 755 754 753 751 750 749 748 746 745 744 742 741 740 739 738 737 735 735 734 733 732 731 730 729 727
779 779 779 779 779 780 780 780 780 780 780 780 780 779 779 779 779 779 779 778 777 777 776 775 774 774 773 772 771 770 769 769 768 766 765 765 764 762 761 760 759 758 757 756 754 753 752 751 750 748 747 745 744 743 742 740 739 738 737 736 735 734 733 732 731 729 728 727 725
778 779 779 779 779 779 780 780 780 780 779 779 779 779 779 779 779 778 778 778 777 776 775 774 774 773 772 771 770 769 769 768 767 766 765 764 763 762 760 759 758 757 756 755 754 753 752 750 749 748 747 745 744 742 741 740 739 737 736 735 734 733 732 731 729 728 726 725 724
778 779 779 779 779 779 779 779 779 779 779 779 779 779 779 779 778 778 778 777 777 776 775 774 773 772 772 771 770 769 768 767 767 766 764 763 762 761 760 759 757 756 755 754 753 752 751 750 749 747 746 745 743 742 740 739 738 736 735 734 733 732 730 729 728 726 724 722 721
778 779 779 779 779 779 779 779 779 779 779 779 779 779 778 778 778 778 777 777 776 775 774 774 773 772 771 770 769 768 767 766 766 765 764 763 762 760 759 758 756 755 754 753 752 751 750 749 748 747 745 744 743 741 740 738 737 736 734 734 732 730 728 727 725 724 722 720 719
778 778 779 779 779 779 779 779 779 779 779 779 779 778 778 778 778 777 776 776 775 774 774 773 772 771 770 769 769 768 766 765 765 764 763 762 761 759 758 757 755 754 753 752 751 750 750 749 747 746 745 744 742 741 739 738 736 735 734 732 731 729 727 724 723 722 721 719 718